TimeCDT,TemperatureF,Dew PointF,Humidity,Sea Level PressureIn,VisibilityMPH,Wind Direction,Wind SpeedMPH,Gust SpeedMPH,PrecipitationIn,Events,Conditions,WindDirDegrees,DateUTC
12:58 AM,72.9,72.9,100,30.05,10.0,SSW,2.3,-,N/A,,Clear,210,2013-07-19 05:58:00
1:58 AM,72.3,72.3,100,30.05,10.0,ESE,2.3,-,N/A,,Clear,110,2013-07-19 06:58:00
2:18 AM,71.6,71.6,100,30.06,9.0,Calm,Calm,-,N/A,,Clear,0,2013-07-19 07:18:00
2:22 AM,71.6,71.6,100,30.06,10.0,Calm,Calm,-,N/A,,Clear,0,2013-07-19 07:22:00
2:58 AM,72.1,72.1,100,30.05,10.0,Variable,2.3,-,N/A,,Clear,0,2013-07-19 07:58:00
3:58 AM,70.9,70.9,100,30.05,10.0,WNW,3.5,-,N/A,,Clear,290,2013-07-19 08:58:00
4:18 AM,69.8,69.8,100,30.06,10.0,North,1.2,-,N/A,,Clear,360,2013-07-19 09:18:00
4:58 AM,69.6,69.6,100,30.04,7.0,Calm,Calm,-,N/A,,Clear,0,2013-07-19 09:58:00
5:27 AM,69.8,69.8,100,30.06,8.0,South,2.3,-,N/A,,Clear,190,2013-07-19 10:27:00
5:58 AM,70.2,70.2,100,30.06,10.0,SSW,2.3,-,N/A,,Clear,210,2013-07-19 10:58:00
6:58 AM,73.2,73.2,100,30.07,10.0,South,3.5,-,N/A,,Clear,180,2013-07-19 11:58:00
7:58 AM,75.7,74.8,97,30.08,10.0,WSW,5.8,-,N/A,,Clear,240,2013-07-19 12:58:00
8:58 AM,79.9,76.1,88,30.08,10.0,WSW,5.8,-,N/A,,Clear,240,2013-07-19 13:58:00
9:58 AM,83.7,74.3,73,30.08,10.0,West,8.1,-,N/A,,Clear,260,2013-07-19 14:58:00
10:58 AM,86.0,73.6,66,30.08,10.0,WSW,9.2,-,N/A,,Clear,240,2013-07-19 15:58:00
11:58 AM,85.8,73.4,66,30.07,10.0,SW,8.1,-,N/A,,Partly Cloudy,230,2013-07-19 16:58:00
12:58 PM,88.0,74.3,64,30.04,10.0,West,9.2,-,N/A,,Scattered Clouds,260,2013-07-19 17:58:00
1:58 PM,88.9,71.8,57,30.02,10.0,SSE,9.2,-,N/A,,Partly Cloudy,160,2013-07-19 18:58:00
2:58 PM,88.9,72.5,58,30.00,10.0,SSW,6.9,-,N/A,,Scattered Clouds,200,2013-07-19 19:58:00
3:58 PM,87.8,71.8,59,29.97,10.0,SSW,6.9,-,N/A,,Partly Cloudy,200,2013-07-19 20:58:00
4:58 PM,89.2,71.2,55,29.95,10.0,SW,6.9,-,N/A,,Clear,220,2013-07-19 21:58:00
5:58 PM,88.5,72.0,58,29.95,10.0,West,6.9,-,N/A,,Clear,270,2013-07-19 22:58:00
6:58 PM,87.6,71.8,59,29.95,10.0,WSW,6.9,-,N/A,,Clear,240,2013-07-19 23:58:00
7:58 PM,85.8,73.0,65,29.96,10.0,South,3.5,-,N/A,,Mostly Cloudy,180,2013-07-20 00:58:00
8:55 PM,82.4,71.6,70,29.98,10.0,South,5.8,-,N/A,,Light Drizzle,170,2013-07-20 01:55:00
8:58 PM,82.2,71.1,69,29.97,10.0,South,5.8,-,0.00,,Light Drizzle,180,2013-07-20 01:58:00
9:05 PM,82.4,71.6,70,29.98,10.0,South,5.8,-,N/A,,Overcast,180,2013-07-20 02:05:00
9:58 PM,79.7,72.3,78,29.97,10.0,SSW,4.6,-,0.00,,Mostly Cloudy,210,2013-07-20 02:58:00
10:58 PM,77.7,73.8,88,29.98,10.0,SSW,6.9,-,N/A,,Clear,210,2013-07-20 03:58:00
11:58 PM,76.3,75.2,96,29.97,10.0,West,3.5,-,N/A,,Clear,260,2013-07-20 04:58:00